OBJECT V, 64547

Orbit data source: Space-Track

You're viewing an Uncataloged Satellite

Recently launched and/or uncataloged satellites may have evolving metadata. Metadata may include but not limited to: Owner, Maufacturer, Bus, Motor, and Mission.

OBJECT V, 64547 is a satellite in SSO that was launched on Mon, 23 Jun 2025 UTC via an FALCON 9 launch vehicle from the Air Force Western Test Range (AFWTR). Unknown objects in Earth's orbit typically refer to objects detected orbiting the Earth but have not yet been identified or cataloged. These objects could be anything from previously untracked satellites, spent rocket stages, debris from satellite collisions, or even natural meteoroids temporarily captured by Earth's gravity.

Loading next visibility...
Identifier
64547, 2025-135V
Orbit
SSO
Country
Flag of TBDTBD
Related business
None
Manufacturer
Unknown
Mission
Operational Commercial Imaging
Bus & Motor
Unknown
Mass
Unknown
Launch date (UTC)
2025-06-23 (1 year ago)
Launch vehicle
FALCON 9
Launch site
Air Force Western Test Range (AFWTR)
Object type
Unknown
Shape & HBR
Box, 0.1 m
Radar Cross Section
0.035 m², Medium (>0.1 m² and < 1m²)

Expand to show TLE details & history
Last TLE update: 17 hours ago

TLE from 17 hours ago
0 OBJECT V
1 64547U 25135V   26171.26769284  .00006860  00000-0  27661-3 0  9998
2 64547  97.4632 287.0354 0001271 137.8940 222.2396 15.25144334 55391
Epoch: 2026-06-20T06:25Z
TLE epoch observation values (Epoch: 2026-06-20T06:25:28.661Z)
Latitude
0.00002°
Longitude
-77.81879°
Altitude
494.094 km
Speed
7.617 km/s
True Right ascension
19h 08m 08s
True Declination
0° 00' 00"
Sunlit
Object was in full shadow at epoch
Visualization orbit readout
Latitude
Unknown
Longitude
Unknown
Altitude
Unknown
Speed
Unknown
Apparent Right ascension
Unknown
Apparent Declination
Unknown
Sunlit
N/A
Visualization observer readout
Local Sidereal Time
10:19:35
Azimuth
Unknown
Elevation
Unknown
Doppler factor
Unknown
Orbital elements
Apogee altitude
488.186 km
Perigee altitude
486.441 km
Semi-major axis
6,865.45 km
Eccentricity
0.00013
Inclination
97.4632°
RAAN
287.0354°
Arg. of periapsis
137.894°
True anomaly
222.22981°
Mean anomaly
222.2396°
Eccentric anomaly
222.23471°
Mean motion
3.8154 °/min
Orbital period
94.35 mins
BSTAR
0.00027661
Loading maneuver chart data...
Computing Atmospheric mass density...
Loading historical data...
Loading historical data...
Loading historical data...
Loading historical data...
Loading historical data...
Loading historical data...
Loading historical data...

Documentation

Showing up to 5 results
|